Time,TemperatureF,DewpointF,PressureIn,WindDirection,WindDirectionDegrees,WindSpeedMPH,WindSpeedGustMPH,Humidity,HourlyPrecipIn,Conditions,Clouds,dailyrainin,SoftwareType,DateUTC
2013-02-10 00:01:00,75.0,65.8,29.95,South,180,0.0,0.0,73,0.00,CLR,,0.00,WeatherDisplay:10.37,2013-02-09 13:01:00,
2013-02-10 00:06:00,74.8,65.6,29.94,South,180,0.0,0.0,73,0.00,CLR,,0.00,WeatherDisplay:10.37,2013-02-09 13:06:00,
2013-02-10 00:11:00,74.8,65.6,29.95,SSW,202,0.0,0.0,73,0.00,CLR,,0.00,WeatherDisplay:10.37,2013-02-09 13:11:00,
2013-02-10 00:16:00,74.8,66.0,29.95,SSW,202,3.5,3.5,74,0.00,CLR,,0.00,WeatherDisplay:10.37,2013-02-09 13:16:00,
2013-02-10 00:21:00,74.8,66.4,29.95,SSW,202,3.6,3.6,75,0.00,CLR,,0.00,WeatherDisplay:10.37,2013-02-09 13:21:00,
2013-02-10 00:26:00,74.8,66.4,29.96,South,180,3.8,3.8,75,0.00,CLR,,0.00,WeatherDisplay:10.37,2013-02-09 13:26:00,
2013-02-10 00:31:00,74.8,66.4,29.96,SW,225,1.3,1.3,75,0.00,CLR,,0.00,WeatherDisplay:10.37,2013-02-09 13:31:00,
2013-02-10 00:36:00,74.5,66.0,29.96,SSW,202,3.5,3.5,75,0.00,CLR,,0.00,WeatherDisplay:10.37,2013-02-09 13:36:00,
2013-02-10 00:41:00,74.5,66.4,29.96,SSW,202,2.3,2.3,76,0.00,CLR,,0.00,WeatherDisplay:10.37,2013-02-09 13:41:00,
2013-02-10 00:46:00,74.5,66.4,29.96,SW,225,4.0,4.0,76,0.00,CLR,,0.00,WeatherDisplay:10.37,2013-02-09 13:46:00,
2013-02-10 00:51:00,74.5,66.4,29.96,WSW,248,5.8,5.8,76,0.00,CLR,,0.00,WeatherDisplay:10.37,2013-02-09 13:51:00,
2013-02-10 00:56:00,74.5,66.8,29.95,SW,225,3.5,3.5,77,0.00,CLR,,0.00,WeatherDisplay:10.37,2013-02-09 13:56:00,
2013-02-10 01:01:00,74.3,66.6,29.95,SSW,202,1.1,1.1,77,0.00,CLR,,0.00,WeatherDisplay:10.37,2013-02-09 14:01:00,
2013-02-10 01:06:00,74.3,66.6,29.95,ESE,112,1.1,1.1,77,0.00,CLR,,0.00,WeatherDisplay:10.37,2013-02-09 14:06:00,
2013-02-10 01:11:00,74.1,66.1,29.95,SW,225,0.0,0.0,76,0.00,CLR,,0.00,WeatherDisplay:10.37,2013-02-09 14:11:00,
2013-02-10 01:16:00,74.1,66.1,29.95,SSE,158,0.0,0.0,76,0.00,CLR,,0.00,WeatherDisplay:10.37,2013-02-09 14:16:00,
2013-02-10 01:21:00,73.9,65.9,29.95,SSE,158,0.0,0.0,76,0.00,CLR,,0.00,WeatherDisplay:10.37,2013-02-09 14:21:00,
2013-02-10 01:26:00,73.9,65.9,29.95,South,180,0.0,0.0,76,0.00,CLR,,0.00,WeatherDisplay:10.37,2013-02-09 14:26:00,
2013-02-10 01:31:00,73.9,65.9,29.95,ESE,112,0.0,0.0,76,0.00,CLR,,0.00,WeatherDisplay:10.37,2013-02-09 14:31:00,
2013-02-10 01:36:00,73.9,66.3,29.95,ENE,68,1.6,1.6,77,0.00,CLR,,0.00,WeatherDisplay:10.37,2013-02-09 14:36:00,
2013-02-10 01:41:00,73.8,66.5,29.94,NE,45,1.1,1.1,78,0.00,CLR,,0.00,WeatherDisplay:10.37,2013-02-09 14:41:00,
2013-02-10 01:46:00,73.6,65.9,29.94,NNE,22,0.0,0.0,77,0.00,CLR,,0.00,WeatherDisplay:10.37,2013-02-09 14:46:00,
2013-02-10 01:51:00,73.6,66.3,29.93,ESE,112,0.0,0.0,78,0.00,CLR,,0.00,WeatherDisplay:10.37,2013-02-09 14:51:00,
2013-02-10 01:56:00,73.2,65.9,29.94,South,180,1.3,1.3,78,0.00,CLR,,0.00,WeatherDisplay:10.37,2013-02-09 14:56:00,
2013-02-10 02:01:00,73.2,65.9,29.94,SW,225,3.5,3.5,78,0.00,CLR,,0.00,WeatherDisplay:10.37,2013-02-09 15:01:00,
2013-02-10 02:06:00,73.2,66.3,29.95,SW,225,3.5,3.5,79,0.00,CLR,,0.00,WeatherDisplay:10.37,2013-02-09 15:06:00,
2013-02-10 02:11:00,73.2,66.3,29.95,SSW,202,3.5,3.5,79,0.00,CLR,,0.00,WeatherDisplay:10.37,2013-02-09 15:11:00,
2013-02-10 02:16:00,73.2,66.3,29.94,South,180,2.3,2.3,79,0.00,CLR,,0.00,WeatherDisplay:10.37,2013-02-09 15:16:00,
2013-02-10 02:21:00,73.2,66.7,29.94,SW,225,1.1,0.0,80,0.00,CLR,,0.00,WeatherDisplay:10.37,2013-02-09 15:21:00,
2013-02-10 02:26:00,73.2,66.7,29.94,South,180,1.1,1.1,80,0.00,CLR,,0.00,WeatherDisplay:10.37,2013-02-09 15:26:00,
2013-02-10 02:31:00,73.2,66.7,29.94,SSE,158,0.0,0.0,80,0.00,CLR,,0.00,WeatherDisplay:10.37,2013-02-09 15:31:00,
2013-02-10 02:36:00,73.2,66.3,29.94,ENE,68,0.7,0.0,79,0.00,CLR,,0.00,WeatherDisplay:10.37,2013-02-09 15:36:00,
2013-02-10 02:41:00,73.2,66.3,29.94,ENE,68,1.1,1.1,79,0.00,CLR,,0.00,WeatherDisplay:10.37,2013-02-09 15:41:00,
2013-02-10 02:46:00,73.0,66.5,29.94,ENE,68,0.0,0.0,80,0.00,CLR,,0.00,WeatherDisplay:10.37,2013-02-09 15:46:00,
2013-02-10 02:51:00,73.0,66.1,29.94,North,0,0.0,0.0,79,0.00,CLR,,0.00,WeatherDisplay:10.37,2013-02-09 15:51:00,
2013-02-10 02:58:00,72.9,66.0,29.93,ENE,68,0.0,0.0,79,0.00,CLR,,0.00,WeatherDisplay:10.37,2013-02-09 15:58:00,
2013-02-10 03:03:00,72.7,65.8,29.93,NNE,22,0.0,0.0,79,0.00,CLR,,0.00,WeatherDisplay:10.37,2013-02-09 16:03:00,
2013-02-10 03:08:00,72.5,65.6,29.93,WNW,292,0.0,0.0,79,0.00,CLR,,0.00,WeatherDisplay:10.37,2013-02-09 16:08:00,
2013-02-10 03:13:00,72.3,65.4,29.93,NW,315,0.0,0.0,79,0.00,CLR,,0.00,WeatherDisplay:10.37,2013-02-09 16:13:00,
2013-02-10 03:18:00,72.3,65.4,29.93,West,270,0.0,0.0,79,0.00,CLR,,0.00,WeatherDisplay:10.37,2013-02-09 16:18:00,
2013-02-10 03:23:00,72.1,65.6,29.93,West,270,1.1,1.1,80,0.00,CLR,,0.00,WeatherDisplay:10.37,2013-02-09 16:23:00,
2013-02-10 03:28:00,72.1,65.6,29.93,West,270,1.1,0.0,80,0.00,CLR,,0.00,WeatherDisplay:10.37,2013-02-09 16:28:00,
2013-02-10 03:33:00,72.0,65.5,29.93,WNW,292,1.1,1.1,80,0.00,CLR,,0.00,WeatherDisplay:10.37,2013-02-09 16:33:00,
2013-02-10 03:38:00,72.0,65.8,29.93,NNW,338,1.3,1.3,81,0.00,CLR,,0.00,WeatherDisplay:10.37,2013-02-09 16:38:00,
2013-02-10 03:43:00,72.0,65.8,29.92,North,0,1.1,1.1,81,0.00,CLR,,0.00,WeatherDisplay:10.37,2013-02-09 16:43:00,
2013-02-10 03:48:00,71.8,65.6,29.92,NNE,22,0.0,0.0,81,0.00,CLR,,0.00,WeatherDisplay:10.37,2013-02-09 16:48:00,
2013-02-10 03:53:00,71.8,65.6,29.92,NE,45,0.0,0.0,81,0.00,CLR,,0.00,WeatherDisplay:10.37,2013-02-09 16:53:00,
2013-02-10 03:58:00,71.8,65.6,29.92,NNE,22,0.0,0.0,81,0.00,CLR,,0.00,WeatherDisplay:10.37,2013-02-09 16:58:00,
2013-02-10 04:03:00,71.8,65.6,29.91,NNE,22,1.1,1.1,81,0.00,CLR,,0.00,WeatherDisplay:10.37,2013-02-09 17:03:00,
2013-02-10 04:08:00,71.4,65.3,29.91,North,0,1.1,1.1,81,0.00,CLR,,0.00,WeatherDisplay:10.37,2013-02-09 17:08:00,
2013-02-10 04:13:00,71.4,65.3,29.91,NNE,22,0.0,0.0,81,0.00,CLR,,0.00,WeatherDisplay:10.37,2013-02-09 17:13:00,
2013-02-10 04:18:00,71.2,65.1,29.91,NNE,22,0.0,0.0,81,0.00,CLR,,0.00,WeatherDisplay:10.37,2013-02-09 17:18:00,
2013-02-10 04:23:00,71.2,65.1,29.90,West,270,0.0,0.0,81,0.00,CLR,,0.00,WeatherDisplay:10.37,2013-02-09 17:23:00,
2013-02-10 04:28:00,70.9,65.1,29.90,North,0,1.1,1.1,82,0.00,CLR,,0.00,WeatherDisplay:10.37,2013-02-09 17:28:00,
2013-02-10 04:33:00,70.9,65.1,29.90,ENE,68,1.1,1.1,82,0.00,CLR,,0.00,WeatherDisplay:10.37,2013-02-09 17:33:00,
2013-02-10 04:38:00,71.2,65.8,29.89,NNE,22,1.1,1.1,83,0.00,CLR,,0.00,WeatherDisplay:10.37,2013-02-09 17:38:00,
2013-02-10 04:43:00,70.9,65.5,29.89,NNE,22,0.0,0.0,83,0.00,CLR,,0.00,WeatherDisplay:10.37,2013-02-09 17:43:00,
2013-02-10 04:48:00,70.9,65.5,29.89,SSW,202,0.0,0.0,83,0.00,CLR,,0.00,WeatherDisplay:10.37,2013-02-09 17:48:00,
2013-02-10 04:53:00,70.9,65.5,29.89,WNW,292,0.0,0.0,83,0.00,CLR,,0.00,WeatherDisplay:10.37,2013-02-09 17:53:00,
2013-02-10 04:58:00,70.7,65.3,29.90,West,270,1.1,1.2,83,0.00,CLR,,0.00,WeatherDisplay:10.37,2013-02-09 17:58:00,
2013-02-10 05:03:00,70.7,65.3,29.89,NNE,22,2.3,2.3,83,0.00,CLR,,0.00,WeatherDisplay:10.37,2013-02-09 18:03:00,
2013-02-10 05:08:00,70.7,65.3,29.88,NNW,338,2.3,2.3,83,0.00,CLR,,0.00,WeatherDisplay:10.37,2013-02-09 18:08:00,
2013-02-10 05:13:00,70.5,65.1,29.88,SW,225,2.3,2.3,83,0.00,CLR,,0.00,WeatherDisplay:10.37,2013-02-09 18:13:00,
2013-02-10 05:18:00,70.5,65.4,29.89,WSW,248,1.3,1.3,84,0.00,CLR,,0.00,WeatherDisplay:10.37,2013-02-09 18:18:00,
2013-02-10 05:23:00,70.5,65.4,29.90,WSW,248,0.0,0.0,84,0.00,CLR,,0.00,WeatherDisplay:10.37,2013-02-09 18:23:00,
2013-02-10 05:28:00,70.5,65.4,29.90,WNW,292,0.0,0.0,84,0.00,CLR,,0.00,WeatherDisplay:10.37,2013-02-09 18:28:00,
2013-02-10 05:33:00,70.5,65.4,29.90,NNE,22,0.0,0.0,84,0.00,CLR,,0.00,WeatherDisplay:10.37,2013-02-09 18:33:00,
2013-02-10 05:38:00,70.5,65.4,29.90,ENE,68,0.0,0.0,84,0.00,CLR,,0.00,WeatherDisplay:10.37,2013-02-09 18:38:00,
2013-02-10 05:43:00,70.7,65.6,29.90,ENE,68,0.0,0.0,84,0.00,CLR,,0.00,WeatherDisplay:10.37,2013-02-09 18:43:00,
2013-02-10 05:48:00,70.7,65.6,29.91,ENE,68,0.0,0.0,84,0.00,CLR,,0.00,WeatherDisplay:10.37,2013-02-09 18:48:00,
2013-02-10 05:53:00,70.7,65.6,29.90,NE,45,1.1,0.0,84,0.00,CLR,,0.00,WeatherDisplay:10.37,2013-02-09 18:53:00,
2013-02-10 05:58:00,70.9,65.8,29.90,NE,45,1.1,1.1,84,0.00,CLR,,0.00,WeatherDisplay:10.37,2013-02-09 18:58:00,
2013-02-10 06:03:00,70.9,65.8,29.90,NNE,22,0.0,0.0,84,0.00,CLR,,0.00,WeatherDisplay:10.37,2013-02-09 19:03:00,
2013-02-10 06:08:00,70.9,65.5,29.90,ENE,68,2.3,2.3,83,0.00,CLR,,0.00,WeatherDisplay:10.37,2013-02-09 19:08:00,
2013-02-10 06:13:00,70.9,65.5,29.90,NE,45,2.3,2.3,83,0.00,CLR,,0.00,WeatherDisplay:10.37,2013-02-09 19:13:00,
2013-02-10 06:18:00,70.5,65.4,29.90,ESE,112,1.1,1.1,84,0.00,CLR,,0.00,WeatherDisplay:10.37,2013-02-09 19:18:00,
2013-02-10 06:23:00,70.5,65.4,29.91,ENE,68,0.0,0.0,84,0.00,CLR,,0.00,WeatherDisplay:10.37,2013-02-09 19:23:00,
2013-02-10 06:28:00,70.3,64.9,29.91,SE,135,0.0,0.0,83,0.00,CLR,,0.00,WeatherDisplay:10.37,2013-02-09 19:28:00,
2013-02-10 06:33:00,70.3,64.9,29.90,NE,45,1.1,1.1,83,0.00,CLR,,0.00,WeatherDisplay:10.37,2013-02-09 19:33:00,
2013-02-10 06:38:00,70.2,65.1,29.90,NE,45,0.0,0.0,84,0.00,CLR,,0.00,WeatherDisplay:10.37,2013-02-09 19:38:00,
2013-02-10 06:43:00,70.2,65.1,29.90,ENE,68,0.0,0.0,84,0.00,CLR,,0.00,WeatherDisplay:10.37,2013-02-09 19:43:00,
2013-02-10 06:48:00,70.0,64.9,29.90,ENE,68,0.0,0.0,84,0.00,CLR,,0.00,WeatherDisplay:10.37,2013-02-09 19:48:00,
2013-02-10 06:53:00,70.0,64.9,29.90,NNE,22,2.3,2.3,84,0.00,CLR,,0.00,WeatherDisplay:10.37,2013-02-09 19:53:00,
2013-02-10 06:58:00,70.0,64.9,29.90,North,0,0.0,0.0,84,0.00,CLR,,0.00,WeatherDisplay:10.37,2013-02-09 19:58:00,
2013-02-10 07:03:00,70.0,64.9,29.91,East,90,0.0,0.0,84,0.00,CLR,,0.00,WeatherDisplay:10.37,2013-02-09 20:03:00,
2013-02-10 07:08:00,70.0,65.3,29.90,NNE,22,0.0,0.0,85,0.00,CLR,,0.00,WeatherDisplay:10.37,2013-02-09 20:08:00,
2013-02-10 07:13:00,70.0,65.3,29.91,North,0,2.3,2.3,85,0.00,CLR,,0.00,WeatherDisplay:10.37,2013-02-09 20:13:00,
2013-02-10 07:18:00,70.2,65.8,29.91,NNE,22,4.6,4.6,86,0.00,CLR,,0.00,WeatherDisplay:10.37,2013-02-09 20:18:00,
2013-02-10 07:23:00,70.3,66.0,29.91,NNW,338,2.3,2.3,86,0.00,CLR,,0.00,WeatherDisplay:10.37,2013-02-09 20:23:00,
2013-02-10 07:28:00,70.5,66.1,29.91,NE,45,4.6,4.6,86,0.00,CLR,,0.00,WeatherDisplay:10.37,2013-02-09 20:28:00,
2013-02-10 07:33:00,70.7,66.3,29.91,ENE,68,3.5,3.5,86,0.00,CLR,,0.00,WeatherDisplay:10.37,2013-02-09 20:33:00,
2013-02-10 07:38:00,70.9,66.5,29.92,NNE,22,3.5,3.5,86,0.00,CLR,,0.00,WeatherDisplay:10.37,2013-02-09 20:38:00,
2013-02-10 07:43:00,71.2,66.8,29.92,North,0,4.6,4.6,86,0.00,CLR,,0.00,WeatherDisplay:10.37,2013-02-09 20:43:00,
2013-02-10 07:48:00,71.6,66.8,29.92,North,0,3.5,3.5,85,0.00,CLR,,0.00,WeatherDisplay:10.37,2013-02-09 20:48:00,
2013-02-10 07:53:00,72.0,67.2,29.92,NNE,22,3.5,3.5,85,0.00,CLR,,0.00,WeatherDisplay:10.37,2013-02-09 20:53:00,
2013-02-10 07:58:00,72.3,67.2,29.92,NNE,22,3.6,3.6,84,0.00,CLR,,0.00,WeatherDisplay:10.37,2013-02-09 20:58:00,
2013-02-10 08:03:00,72.7,67.6,29.92,NNE,22,4.6,4.6,84,0.00,CLR,,0.00,WeatherDisplay:10.37,2013-02-09 21:03:00,
2013-02-10 08:08:00,73.2,67.7,29.92,North,0,5.8,5.8,83,0.00,CLR,,0.00,WeatherDisplay:10.37,2013-02-09 21:08:00,
2013-02-10 08:13:00,73.8,68.3,29.92,NNE,22,5.8,5.8,83,0.00,CLR,,0.00,WeatherDisplay:10.37,2013-02-09 21:13:00,
2013-02-10 08:18:00,74.1,68.3,29.92,North,0,4.6,4.6,82,0.00,CLR,,0.00,WeatherDisplay:10.37,2013-02-09 21:18:00,
2013-02-10 08:23:00,74.8,68.6,29.92,NNW,338,4.0,4.0,81,0.00,CLR,,0.00,WeatherDisplay:10.37,2013-02-09 21:23:00,
2013-02-10 08:28:00,75.4,68.8,29.92,NNW,338,8.1,8.1,80,0.00,CLR,,0.00,WeatherDisplay:10.37,2013-02-09 21:28:00,
2013-02-10 08:33:00,75.9,68.9,29.93,North,0,6.9,6.9,79,0.00,CLR,,0.00,WeatherDisplay:10.37,2013-02-09 21:33:00,
2013-02-10 08:38:00,76.5,69.5,29.92,ENE,68,3.5,3.5,79,0.00,CLR,,0.00,WeatherDisplay:10.37,2013-02-09 21:38:00,
2013-02-10 08:43:00,77.0,69.2,29.92,NNE,22,5.8,5.8,77,0.00,CLR,,0.00,WeatherDisplay:10.37,2013-02-09 21:43:00,
2013-02-10 08:48:00,77.5,69.8,29.92,NNE,22,6.9,6.9,77,0.00,CLR,,0.00,WeatherDisplay:10.37,2013-02-09 21:48:00,
2013-02-10 08:53:00,78.1,69.9,29.92,North,0,5.8,5.8,76,0.00,CLR,,0.00,WeatherDisplay:10.37,2013-02-09 21:53:00,
2013-02-10 08:58:00,78.6,70.0,29.92,NNW,338,3.6,3.6,75,0.00,CLR,,0.00,WeatherDisplay:10.37,2013-02-09 21:58:00,
2013-02-10 09:03:00,79.3,70.7,29.92,North,0,2.3,2.3,75,0.00,CLR,,0.00,WeatherDisplay:10.37,2013-02-09 22:03:00,
2013-02-10 09:08:00,80.4,71.0,29.92,NNW,338,5.8,5.8,73,0.00,CLR,,0.00,WeatherDisplay:10.37,2013-02-09 22:08:00,
2013-02-10 09:13:00,81.3,71.4,29.92,WNW,292,2.3,2.3,72,0.00,CLR,,0.00,WeatherDisplay:10.37,2013-02-09 22:13:00,
2013-02-10 09:18:00,82.2,71.0,29.92,NW,315,4.6,4.6,69,0.00,CLR,,0.00,WeatherDisplay:10.37,2013-02-09 22:18:00,
2013-02-10 09:23:00,82.9,71.3,29.92,NNE,22,4.6,4.6,68,0.00,CLR,,0.00,WeatherDisplay:10.37,2013-02-09 22:23:00,
2013-02-10 09:28:00,83.8,71.3,29.93,West,270,3.5,3.5,66,0.00,CLR,,0.00,WeatherDisplay:10.37,2013-02-09 22:28:00,
2013-02-10 09:33:00,84.4,70.9,29.93,NNW,338,2.3,2.3,64,0.00,CLR,,0.00,WeatherDisplay:10.37,2013-02-09 22:33:00,
2013-02-10 09:38:00,84.7,70.3,29.93,North,0,3.5,3.5,62,0.00,CLR,,0.00,WeatherDisplay:10.37,2013-02-09 22:38:00,
2013-02-10 09:43:00,85.1,70.6,29.93,NNE,22,4.7,4.7,62,0.00,CLR,,0.00,WeatherDisplay:10.37,2013-02-09 22:43:00,
2013-02-10 09:48:00,85.8,70.3,29.93,NNW,338,3.5,3.5,60,0.00,CLR,,0.00,WeatherDisplay:10.37,2013-02-09 22:48:00,
2013-02-10 09:53:00,86.5,71.0,29.93,NNE,22,4.0,4.0,60,0.00,CLR,,0.00,WeatherDisplay:10.37,2013-02-09 22:53:00,
2013-02-10 09:58:00,86.7,70.2,29.93,WNW,292,2.3,2.3,58,0.00,CLR,,0.00,WeatherDisplay:10.37,2013-02-09 22:58:00,
2013-02-10 10:03:00,87.4,70.8,29.93,NW,315,3.5,3.8,58,0.00,CLR,,0.00,WeatherDisplay:10.37,2013-02-09 23:03:00,
2013-02-10 10:08:00,88.3,71.7,29.93,NNW,338,5.8,5.8,58,0.00,CLR,,0.00,WeatherDisplay:10.37,2013-02-09 23:08:00,
2013-02-10 10:13:00,89.1,70.8,29.93,NE,45,3.5,3.5,55,0.00,CLR,,0.00,WeatherDisplay:10.37,2013-02-09 23:13:00,
2013-02-10 10:18:00,89.6,71.3,29.93,NE,45,5.8,5.8,55,0.00,CLR,,0.00,WeatherDisplay:10.37,2013-02-09 23:18:00,
2013-02-10 10:23:00,90.1,71.2,29.93,WNW,292,3.5,3.5,54,0.00,CLR,,0.00,WeatherDisplay:10.37,2013-02-09 23:23:00,
2013-02-10 10:28:00,90.3,70.3,29.94,WSW,248,5.8,5.8,52,0.00,CLR,,0.00,WeatherDisplay:10.37,2013-02-09 23:28:00,
2013-02-10 10:33:00,90.5,70.5,29.94,NW,315,4.7,4.7,52,0.00,CLR,,0.00,WeatherDisplay:10.37,2013-02-09 23:33:00,
2013-02-10 10:38:00,90.7,70.1,29.94,NW,315,4.6,4.6,51,0.00,CLR,,0.00,WeatherDisplay:10.37,2013-02-09 23:38:00,
2013-02-10 10:43:00,91.0,71.0,29.93,South,180,3.5,3.5,52,0.00,CLR,,0.00,WeatherDisplay:10.37,2013-02-09 23:43:00,
2013-02-10 10:48:00,91.6,70.9,29.93,WNW,292,3.5,3.5,51,0.00,CLR,,0.00,WeatherDisplay:10.37,2013-02-09 23:48:00,
2013-02-10 10:53:00,92.1,70.8,29.94,North,0,3.6,3.6,50,0.00,CLR,,0.00,WeatherDisplay:10.37,2013-02-09 23:53:00,
2013-02-10 10:58:00,92.7,71.3,29.94,WNW,292,3.5,3.5,50,0.00,CLR,,0.00,WeatherDisplay:10.37,2013-02-09 23:58:00,
2013-02-10 11:03:00,92.8,70.9,29.94,WNW,292,5.8,5.8,49,0.00,CLR,,0.00,WeatherDisplay:10.37,2013-02-10 00:03:00,
2013-02-10 11:08:00,93.0,71.0,29.94,SSW,202,5.1,5.1,49,0.00,CLR,,0.00,WeatherDisplay:10.37,2013-02-10 00:08:00,
2013-02-10 11:13:00,93.0,69.8,29.94,NW,315,3.5,3.5,47,0.00,CLR,,0.00,WeatherDisplay:10.37,2013-02-10 00:13:00,
2013-02-10 11:18:00,92.8,69.6,29.94,West,270,2.3,2.3,47,0.00,CLR,,0.00,WeatherDisplay:10.37,2013-02-10 00:18:00,
2013-02-10 11:23:00,93.0,69.8,29.94,North,0,2.3,2.3,47,0.00,CLR,,0.00,WeatherDisplay:10.37,2013-02-10 00:23:00,
2013-02-10 11:28:00,93.4,69.5,29.94,SSW,202,5.8,5.8,46,0.00,CLR,,0.00,WeatherDisplay:10.37,2013-02-10 00:28:00,
2013-02-10 11:33:00,93.4,71.4,29.94,WSW,248,5.8,5.8,49,0.00,CLR,,0.00,WeatherDisplay:10.37,2013-02-10 00:33:00,
2013-02-10 11:38:00,93.4,72.0,29.94,SSE,158,9.2,9.2,50,0.00,CLR,,0.00,WeatherDisplay:10.37,2013-02-10 00:38:00,
2013-02-10 11:43:00,93.7,72.3,29.94,SSE,158,5.8,5.8,50,0.00,CLR,,0.00,WeatherDisplay:10.37,2013-02-10 00:43:00,
2013-02-10 11:48:00,94.3,73.4,29.94,South,180,6.9,6.9,51,0.00,CLR,,0.00,WeatherDisplay:10.37,2013-02-10 00:48:00,
2013-02-10 11:53:00,95.4,73.8,29.94,SE,135,5.8,5.8,50,0.00,CLR,,0.00,WeatherDisplay:10.37,2013-02-10 00:53:00,
2013-02-10 11:58:00,95.9,74.3,29.94,East,90,4.6,4.6,50,0.00,CLR,,0.00,WeatherDisplay:10.37,2013-02-10 00:58:00,
2013-02-10 12:03:00,96.6,74.3,29.94,East,90,10.4,10.4,49,0.00,CLR,,0.00,WeatherDisplay:10.37,2013-02-10 01:03:00,
2013-02-10 12:08:00,97.3,74.4,29.93,SSE,158,4.6,4.8,48,0.00,CLR,,0.00,WeatherDisplay:10.37,2013-02-10 01:08:00,
2013-02-10 12:13:00,97.9,74.9,29.94,SE,135,11.5,11.5,48,0.00,CLR,,0.00,WeatherDisplay:10.37,2013-02-10 01:13:00,
2013-02-10 12:18:00,98.1,75.0,29.94,SE,135,5.8,5.8,48,0.00,CLR,,0.00,WeatherDisplay:10.37,2013-02-10 01:18:00,
2013-02-10 12:23:00,98.4,74.7,29.93,East,90,4.6,4.6,47,0.00,CLR,,0.00,WeatherDisplay:10.37,2013-02-10 01:23:00,
2013-02-10 12:28:00,99.7,75.9,29.93,ENE,68,4.6,4.6,47,0.00,CLR,,0.00,WeatherDisplay:10.37,2013-02-10 01:28:00,
2013-02-10 12:33:00,100.6,75.4,29.93,NE,45,6.9,6.9,45,0.00,CLR,,0.00,WeatherDisplay:10.37,2013-02-10 01:33:00,
2013-02-10 12:38:00,100.2,75.0,29.92,NNE,22,6.3,6.3,45,0.00,CLR,,0.00,WeatherDisplay:10.37,2013-02-10 01:38:00,
2013-02-10 12:43:00,100.4,74.5,29.93,East,90,8.1,8.1,44,0.00,CLR,,0.00,WeatherDisplay:10.37,2013-02-10 01:43:00,
2013-02-10 12:48:00,100.6,75.4,29.92,SE,135,6.9,6.9,45,0.00,CLR,,0.00,WeatherDisplay:10.37,2013-02-10 01:48:00,
2013-02-10 12:53:00,100.9,75.0,29.92,SE,135,5.8,5.8,44,0.00,CLR,,0.00,WeatherDisplay:10.37,2013-02-10 01:53:00,
2013-02-10 12:58:00,101.5,75.5,29.93,SE,135,8.1,8.1,44,0.00,CLR,,0.00,WeatherDisplay:10.37,2013-02-10 01:58:00,
2013-02-10 13:03:00,102.0,75.3,29.92,ESE,112,8.1,8.1,43,0.00,CLR,,0.00,WeatherDisplay:10.37,2013-02-10 02:03:00,
2013-02-10 13:08:00,102.0,75.3,29.92,SSE,158,4.6,4.6,43,0.00,CLR,,0.00,WeatherDisplay:10.37,2013-02-10 02:08:00,
2013-02-10 13:13:00,102.0,74.6,29.92,East,90,9.2,9.2,42,0.00,CLR,,0.00,WeatherDisplay:10.37,2013-02-10 02:13:00,
2013-02-10 13:18:00,102.0,75.3,29.92,ESE,112,5.8,5.8,43,0.00,CLR,,0.00,WeatherDisplay:10.37,2013-02-10 02:18:00,
2013-02-10 13:23:00,102.0,75.3,29.91,SE,136,11.5,11.5,43,0.00,CLR,,0.00,WeatherDisplay:10.37,2013-02-10 02:23:00,
2013-02-10 13:28:00,99.3,74.2,29.91,SE,136,10.4,10.5,45,0.00,CLR,,0.00,WeatherDisplay:10.37,2013-02-10 02:28:00,
2013-02-10 13:33:00,97.5,73.3,29.91,NE,45,10.4,10.4,46,0.00,CLR,,0.00,WeatherDisplay:10.37,2013-02-10 02:33:00,
2013-02-10 13:38:00,96.4,72.9,29.91,East,90,5.8,5.8,47,0.00,CLR,,0.00,WeatherDisplay:10.37,2013-02-10 02:38:00,
2013-02-10 13:43:00,96.1,73.8,29.91,East,91,1.1,1.1,49,0.00,CLR,,0.00,WeatherDisplay:10.37,2013-02-10 02:43:00,
2013-02-10 13:48:00,96.1,74.4,29.91,SE,135,9.2,9.2,50,0.00,CLR,,0.00,WeatherDisplay:10.37,2013-02-10 02:48:00,
2013-02-10 13:53:00,95.2,72.4,29.91,East,91,10.4,10.4,48,0.00,CLR,,0.00,WeatherDisplay:10.37,2013-02-10 02:53:00,
2013-02-10 13:58:00,91.6,70.9,29.91,East,91,10.4,10.4,51,0.00,CLR,,0.00,WeatherDisplay:10.37,2013-02-10 02:58:00,
2013-02-10 14:03:00,90.0,70.0,29.91,East,91,10.4,10.4,52,0.00,CLR,,0.00,WeatherDisplay:10.37,2013-02-10 03:03:00,
2013-02-10 14:08:00,88.5,69.8,29.91,North,1,10.4,10.4,54,0.00,CLR,,0.00,WeatherDisplay:10.37,2013-02-10 03:08:00,
2013-02-10 14:13:00,88.0,69.8,29.91,SE,135,10.4,10.4,55,0.00,CLR,,0.00,WeatherDisplay:10.37,2013-02-10 03:13:00,
2013-02-10 14:18:00,88.0,69.8,29.92,ESE,112,11.5,11.5,55,0.00,CLR,,0.00,WeatherDisplay:10.37,2013-02-10 03:18:00,
2013-02-10 14:23:00,87.4,69.3,29.92,SE,135,10.4,10.4,55,0.00,CLR,,0.00,WeatherDisplay:10.37,2013-02-10 03:23:00,
2013-02-10 14:28:00,87.3,69.6,29.92,East,90,9.2,9.2,56,0.00,CLR,,0.00,WeatherDisplay:10.37,2013-02-10 03:28:00,
2013-02-10 14:33:00,87.3,69.1,29.92,SE,135,9.2,9.2,55,0.00,CLR,,0.00,WeatherDisplay:10.37,2013-02-10 03:33:00,
2013-02-10 14:38:00,87.3,68.6,29.92,SSE,158,16.3,16.3,54,0.00,CLR,,0.00,WeatherDisplay:10.37,2013-02-10 03:38:00,
2013-02-10 14:43:00,87.1,68.4,29.92,SSE,158,9.2,9.2,54,0.00,CLR,,0.00,WeatherDisplay:10.37,2013-02-10 03:43:00,
2013-02-10 14:48:00,87.1,67.3,29.92,SSW,202,16.1,16.1,52,0.00,CLR,,0.00,WeatherDisplay:10.37,2013-02-10 03:48:00,
2013-02-10 14:53:00,86.9,67.2,29.92,SSE,158,4.6,4.6,52,0.00,CLR,,0.00,WeatherDisplay:10.37,2013-02-10 03:53:00,
2013-02-10 14:58:00,86.5,67.4,29.92,SSW,202,13.8,13.8,53,0.00,CLR,,0.00,WeatherDisplay:10.37,2013-02-10 03:58:00,
2013-02-10 15:03:00,85.8,67.3,29.92,SSE,158,11.5,11.5,54,0.00,CLR,,0.00,WeatherDisplay:10.37,2013-02-10 04:03:00,
2013-02-10 15:09:00,85.8,67.3,29.92,SSE,158,13.8,13.8,54,0.00,CLR,,0.00,WeatherDisplay:10.37,2013-02-10 04:09:00,
2013-02-10 15:14:00,85.1,67.6,29.92,SSW,202,9.2,9.2,56,0.00,CLR,,0.00,WeatherDisplay:10.37,2013-02-10 04:14:00,
2013-02-10 15:19:00,84.7,67.3,29.92,South,180,16.1,16.1,56,0.00,CLR,,0.00,WeatherDisplay:10.37,2013-02-10 04:19:00,
2013-02-10 15:24:00,83.8,67.0,29.92,SSE,158,17.3,17.3,57,0.00,CLR,,0.00,WeatherDisplay:10.37,2013-02-10 04:24:00,
2013-02-10 15:29:00,83.3,67.5,29.93,South,180,15.0,15.0,59,0.00,CLR,,0.00,WeatherDisplay:10.37,2013-02-10 04:29:00,
2013-02-10 15:34:00,82.8,67.0,29.92,SSE,158,13.8,13.8,59,0.00,CLR,,0.00,WeatherDisplay:10.37,2013-02-10 04:34:00,
2013-02-10 15:39:00,82.2,66.9,29.93,SSE,158,15.0,15.0,60,0.00,CLR,,0.00,WeatherDisplay:10.37,2013-02-10 04:39:00,
2013-02-10 15:44:00,81.7,67.4,29.93,SE,135,6.9,6.9,62,0.00,CLR,,0.00,WeatherDisplay:10.37,2013-02-10 04:44:00,
2013-02-10 15:49:00,81.3,67.5,29.93,SSE,158,12.7,12.7,63,0.00,CLR,,0.00,WeatherDisplay:10.37,2013-02-10 04:49:00,
2013-02-10 15:54:00,81.1,68.3,29.93,East,90,10.4,10.4,65,0.00,CLR,,0.00,WeatherDisplay:10.37,2013-02-10 04:54:00,
2013-02-10 15:59:00,80.8,67.9,29.93,South,180,12.7,12.7,65,0.00,CLR,,0.00,WeatherDisplay:10.37,2013-02-10 04:59:00,
2013-02-10 16:00:00,80.8,67.9,29.93,SSE,158,12.7,12.7,65,0.00,CLR,,0.00,WeatherDisplay:10.37,2013-02-10 05:00:00,
2013-02-10 16:05:00,80.6,68.6,29.92,South,180,12.7,12.7,67,0.00,CLR,,0.00,WeatherDisplay:10.37,2013-02-10 05:05:00,
2013-02-10 16:10:00,80.2,68.7,29.93,SSE,158,18.4,18.4,68,0.00,CLR,,0.00,WeatherDisplay:10.37,2013-02-10 05:10:00,
2013-02-10 16:15:00,79.5,68.5,29.93,SSW,202,13.8,13.8,69,0.00,CLR,,0.00,WeatherDisplay:10.37,2013-02-10 05:15:00,
2013-02-10 16:20:00,79.2,68.5,29.93,SSE,158,10.4,10.4,70,0.00,CLR,,0.00,WeatherDisplay:10.37,2013-02-10 05:20:00,
2013-02-10 16:25:00,79.3,68.7,29.93,South,180,13.6,13.6,70,0.00,CLR,,0.00,WeatherDisplay:10.37,2013-02-10 05:25:00,
2013-02-10 16:30:00,79.0,68.4,29.93,ESE,112,12.1,12.1,70,0.00,CLR,,0.00,WeatherDisplay:10.37,2013-02-10 05:30:00,
2013-02-10 16:35:00,79.0,68.4,29.93,SW,225,13.8,13.8,70,0.00,CLR,,0.00,WeatherDisplay:10.37,2013-02-10 05:35:00,
2013-02-10 16:40:00,78.6,68.0,29.93,South,180,15.0,15.0,70,0.00,CLR,,0.00,WeatherDisplay:10.37,2013-02-10 05:40:00,
2013-02-10 16:45:00,78.4,68.3,29.93,SSW,202,19.6,19.6,71,0.00,CLR,,0.00,WeatherDisplay:10.37,2013-02-10 05:45:00,
2013-02-10 16:50:00,78.1,67.9,29.93,SSW,202,17.3,17.3,71,0.00,CLR,,0.00,WeatherDisplay:10.37,2013-02-10 05:50:00,
2013-02-10 16:55:00,77.7,67.6,29.93,South,180,18.4,18.4,71,0.00,CLR,,0.00,WeatherDisplay:10.37,2013-02-10 05:55:00,
2013-02-10 17:00:00,77.7,67.6,29.93,South,180,15.6,15.6,71,0.00,CLR,,0.00,WeatherDisplay:10.37,2013-02-10 06:00:00,
2013-02-10 17:05:00,77.9,67.3,29.93,South,180,15.0,15.0,70,0.00,CLR,,0.00,WeatherDisplay:10.37,2013-02-10 06:05:00,
2013-02-10 17:10:00,78.4,67.8,29.93,SE,135,6.9,7.2,70,0.00,CLR,,0.00,WeatherDisplay:10.37,2013-02-10 06:10:00,
2013-02-10 17:15:00,78.6,68.0,29.93,South,180,11.5,11.5,70,0.00,CLR,,0.00,WeatherDisplay:10.37,2013-02-10 06:15:00,
2013-02-10 17:20:00,78.6,68.0,29.93,SE,135,11.5,12.2,70,0.00,CLR,,0.00,WeatherDisplay:10.37,2013-02-10 06:20:00,
2013-02-10 17:25:00,78.3,67.7,29.93,South,180,11.5,11.5,70,0.00,CLR,,0.00,WeatherDisplay:10.37,2013-02-10 06:25:00,
2013-02-10 17:30:00,78.1,67.5,29.93,SSW,202,11.5,11.5,70,0.00,CLR,,0.00,WeatherDisplay:10.37,2013-02-10 06:30:00,
2013-02-10 17:35:00,78.1,67.5,29.93,SSE,158,9.2,9.2,70,0.00,CLR,,0.00,WeatherDisplay:10.37,2013-02-10 06:35:00,
2013-02-10 17:40:00,78.1,67.9,29.93,SSW,202,12.7,12.7,71,0.00,CLR,,0.00,WeatherDisplay:10.37,2013-02-10 06:40:00,
2013-02-10 17:45:00,78.1,67.9,29.93,South,180,10.5,10.5,71,0.00,CLR,,0.00,WeatherDisplay:10.37,2013-02-10 06:45:00,
2013-02-10 17:50:00,77.9,67.7,29.93,SSW,202,12.7,12.7,71,0.00,CLR,,0.00,WeatherDisplay:10.37,2013-02-10 06:50:00,
2013-02-10 17:55:00,77.5,67.4,29.93,SSE,158,12.7,12.7,71,0.00,CLR,,0.00,WeatherDisplay:10.37,2013-02-10 06:55:00,
2013-02-10 18:00:00,77.4,67.6,29.93,SSW,202,15.0,15.0,72,0.00,CLR,,0.00,WeatherDisplay:10.37,2013-02-10 07:00:00,
2013-02-10 18:05:00,77.2,67.5,29.93,SE,135,8.9,8.9,72,0.00,CLR,,0.00,WeatherDisplay:10.37,2013-02-10 07:05:00,
2013-02-10 18:10:00,77.2,67.5,29.93,South,180,17.3,17.3,72,0.00,CLR,,0.00,WeatherDisplay:10.37,2013-02-10 07:10:00,
2013-02-10 18:15:00,76.8,67.5,29.92,SSW,202,16.1,16.1,73,0.00,CLR,,0.00,WeatherDisplay:10.37,2013-02-10 07:15:00,
2013-02-10 18:20:00,76.3,67.0,29.93,South,180,19.6,19.6,73,0.00,CLR,,0.00,WeatherDisplay:10.37,2013-02-10 07:20:00,
2013-02-10 18:25:00,76.1,66.8,29.93,South,180,11.8,11.8,73,0.00,CLR,,0.00,WeatherDisplay:10.37,2013-02-10 07:25:00,
2013-02-10 18:30:00,75.9,67.0,29.93,SSW,202,16.1,16.1,74,0.00,CLR,,0.00,WeatherDisplay:10.37,2013-02-10 07:30:00,
2013-02-10 18:35:00,75.7,66.9,29.93,South,180,12.7,12.7,74,0.00,CLR,,0.00,WeatherDisplay:10.37,2013-02-10 07:35:00,
2013-02-10 18:40:00,75.7,66.9,29.93,South,180,15.0,15.0,74,0.00,CLR,,0.00,WeatherDisplay:10.37,2013-02-10 07:40:00,
2013-02-10 18:45:00,75.7,67.2,29.94,South,180,12.7,12.7,75,0.00,CLR,,0.00,WeatherDisplay:10.37,2013-02-10 07:45:00,
2013-02-10 18:50:00,75.6,67.1,29.94,South,180,10.4,10.4,75,0.00,CLR,,0.00,WeatherDisplay:10.37,2013-02-10 07:50:00,
2013-02-10 18:55:00,75.6,67.1,29.95,SSE,158,16.1,16.1,75,0.00,CLR,,0.00,WeatherDisplay:10.37,2013-02-10 07:55:00,
2013-02-10 19:00:00,75.4,66.9,29.95,SSE,158,16.1,16.1,75,0.00,CLR,,0.00,WeatherDisplay:10.37,2013-02-10 08:00:00,
2013-02-10 19:05:00,75.0,66.6,29.96,South,180,12.7,12.7,75,0.00,CLR,,0.00,WeatherDisplay:10.37,2013-02-10 08:05:00,
2013-02-10 19:10:00,75.2,67.1,29.97,SSW,202,17.3,17.3,76,0.00,CLR,,0.00,WeatherDisplay:10.37,2013-02-10 08:10:00,
2013-02-10 19:15:00,75.0,66.6,29.97,SSW,202,15.0,15.0,75,0.00,CLR,,0.00,WeatherDisplay:10.37,2013-02-10 08:15:00,
2013-02-10 19:20:00,75.0,66.6,29.97,SE,135,12.7,12.7,75,0.00,CLR,,0.00,WeatherDisplay:10.37,2013-02-10 08:20:00,
2013-02-10 19:25:00,75.0,66.9,29.98,SSW,202,23.0,23.0,76,0.00,CLR,,0.00,WeatherDisplay:10.37,2013-02-10 08:25:00,
2013-02-10 19:30:00,74.8,66.8,29.98,SSW,202,16.1,16.1,76,0.00,CLR,,0.00,WeatherDisplay:10.37,2013-02-10 08:30:00,
2013-02-10 19:35:00,74.7,67.0,29.99,SSE,158,16.1,16.1,77,0.00,CLR,,0.00,WeatherDisplay:10.37,2013-02-10 08:35:00,
2013-02-10 19:40:00,74.5,66.8,29.98,SE,135,17.3,17.3,77,0.00,CLR,,0.00,WeatherDisplay:10.37,2013-02-10 08:40:00,
2013-02-10 19:45:00,74.3,66.2,29.99,SW,225,17.3,17.3,76,0.00,CLR,,0.00,WeatherDisplay:10.37,2013-02-10 08:45:00,
2013-02-10 19:50:00,74.3,66.2,30.00,SSE,158,16.1,16.1,76,0.00,CLR,,0.00,WeatherDisplay:10.37,2013-02-10 08:50:00,
2013-02-10 19:55:00,74.3,66.2,30.00,South,180,16.1,16.1,76,0.00,CLR,,0.00,WeatherDisplay:10.37,2013-02-10 08:55:00,
2013-02-10 20:00:00,74.1,66.1,30.00,South,180,16.1,16.1,76,0.00,CLR,,0.00,WeatherDisplay:10.37,2013-02-10 09:00:00,
2013-02-10 20:05:00,74.1,66.1,30.00,SSW,202,23.2,23.2,76,0.00,CLR,,0.00,WeatherDisplay:10.37,2013-02-10 09:05:00,
2013-02-10 20:10:00,74.1,66.1,30.01,SE,135,22.6,22.6,76,0.00,CLR,,0.00,WeatherDisplay:10.37,2013-02-10 09:10:00,
2013-02-10 20:15:00,73.9,65.9,30.01,SSW,202,18.4,18.4,76,0.00,CLR,,0.00,WeatherDisplay:10.37,2013-02-10 09:15:00,
2013-02-10 20:20:00,73.8,65.3,30.02,SSE,158,18.4,18.4,75,0.00,CLR,,0.00,WeatherDisplay:10.37,2013-02-10 09:20:00,
2013-02-10 20:26:00,73.8,65.3,30.02,SSE,158,24.8,24.8,75,0.00,CLR,,0.00,WeatherDisplay:10.37,2013-02-10 09:26:00,
2013-02-10 20:31:00,73.6,65.2,30.02,SSE,158,17.3,17.3,75,0.00,CLR,,0.00,WeatherDisplay:10.37,2013-02-10 09:31:00,
2013-02-10 20:36:00,73.6,65.2,30.03,SE,135,18.8,18.8,75,0.00,CLR,,0.00,WeatherDisplay:10.37,2013-02-10 09:36:00,
2013-02-10 20:41:00,73.6,65.2,30.03,SE,135,17.4,17.4,75,0.00,CLR,,0.00,WeatherDisplay:10.37,2013-02-10 09:41:00,
2013-02-10 20:46:00,73.8,65.0,30.03,SSE,158,12.7,12.7,74,0.00,CLR,,0.00,WeatherDisplay:10.37,2013-02-10 09:46:00,
2013-02-10 20:51:00,73.8,65.0,30.03,SSW,202,13.8,13.8,74,0.00,CLR,,0.00,WeatherDisplay:10.37,2013-02-10 09:51:00,
2013-02-10 20:56:00,73.9,65.1,30.04,South,180,13.0,13.0,74,0.00,CLR,,0.00,WeatherDisplay:10.37,2013-02-10 09:56:00,
2013-02-10 21:01:00,73.9,64.7,30.05,South,180,11.5,11.5,73,0.00,CLR,,0.00,WeatherDisplay:10.37,2013-02-10 10:01:00,
2013-02-10 21:06:00,73.9,64.7,30.05,SSE,158,26.5,26.5,73,0.00,CLR,,0.00,WeatherDisplay:10.37,2013-02-10 10:06:00,
2013-02-10 21:11:00,73.9,65.1,30.05,SSE,158,13.8,13.8,74,0.00,CLR,,0.00,WeatherDisplay:10.37,2013-02-10 10:11:00,
2013-02-10 21:16:00,73.6,65.2,30.05,SSE,158,16.1,16.1,75,0.00,CLR,,0.00,WeatherDisplay:10.37,2013-02-10 10:16:00,
2013-02-10 21:21:00,73.2,65.6,30.05,SSW,202,19.6,19.6,77,0.00,CLR,,0.00,WeatherDisplay:10.37,2013-02-10 10:21:00,
2013-02-10 21:26:00,72.7,65.4,30.07,SSW,202,17.3,17.3,78,0.00,CLR,,0.00,WeatherDisplay:10.37,2013-02-10 10:26:00,
2013-02-10 21:31:00,72.3,65.4,30.07,SSW,202,18.4,18.4,79,0.00,CLR,,0.00,WeatherDisplay:10.37,2013-02-10 10:31:00,
2013-02-10 21:36:00,72.1,65.6,30.07,South,180,17.3,17.3,80,0.00,CLR,,0.00,WeatherDisplay:10.37,2013-02-10 10:36:00,
2013-02-10 21:41:00,72.0,65.5,30.07,SSW,202,18.4,18.4,80,0.00,CLR,,0.00,WeatherDisplay:10.37,2013-02-10 10:41:00,
2013-02-10 21:46:00,71.8,65.3,30.08,SSW,202,15.0,15.0,80,0.00,CLR,,0.00,WeatherDisplay:10.37,2013-02-10 10:46:00,
2013-02-10 21:51:00,71.4,64.9,30.08,South,180,12.7,12.7,80,0.00,CLR,,0.00,WeatherDisplay:10.37,2013-02-10 10:51:00,
2013-02-10 21:56:00,71.4,65.3,30.08,SSW,202,15.0,15.0,81,0.00,CLR,,0.00,WeatherDisplay:10.37,2013-02-10 10:56:00,
2013-02-10 22:01:00,71.2,65.1,30.08,South,180,12.7,12.7,81,0.00,CLR,,0.00,WeatherDisplay:10.37,2013-02-10 11:01:00,
2013-02-10 22:06:00,70.9,64.8,30.08,South,180,12.7,12.7,81,0.00,CLR,,0.00,WeatherDisplay:10.37,2013-02-10 11:06:00,
2013-02-10 22:11:00,70.9,64.8,30.08,SSW,202,15.0,15.0,81,0.02,RA,,0.02,WeatherDisplay:10.37,2013-02-10 11:11:00,
2013-02-10 22:16:00,70.9,65.1,30.08,South,180,15.0,15.0,82,0.02,RA,,0.02,WeatherDisplay:10.37,2013-02-10 11:16:00,
2013-02-10 22:21:00,70.7,64.9,30.09,SW,225,9.2,9.2,82,0.02,CLR,,0.02,WeatherDisplay:10.37,2013-02-10 11:21:00,
2013-02-10 22:26:00,70.5,64.8,30.09,South,180,11.5,11.5,82,0.02,CLR,,0.02,WeatherDisplay:10.37,2013-02-10 11:26:00,
2013-02-10 22:31:00,70.5,65.1,30.10,SW,225,6.9,6.9,83,0.04,RA,,0.04,WeatherDisplay:10.37,2013-02-10 11:31:00,
2013-02-10 22:36:00,70.5,65.1,30.10,SW,225,5.8,5.8,83,0.04,RA,,0.04,WeatherDisplay:10.37,2013-02-10 11:36:00,
2013-02-10 22:41:00,70.5,65.1,30.11,SW,225,4.6,4.6,83,0.08,RA,,0.08,WeatherDisplay:10.37,2013-02-10 11:41:00,
2013-02-10 22:46:00,70.7,65.3,30.11,SW,225,3.5,3.5,83,0.10,RA,,0.10,WeatherDisplay:10.37,2013-02-10 11:46:00,
2013-02-10 22:51:00,70.5,65.4,30.11,SW,225,2.3,2.3,84,0.12,RA,,0.12,WeatherDisplay:10.37,2013-02-10 11:51:00,
2013-02-10 22:56:00,70.5,65.4,30.11,NNW,338,2.3,2.3,84,0.14,RA,,0.14,WeatherDisplay:10.37,2013-02-10 11:56:00,
2013-02-10 23:01:00,70.5,65.4,30.10,SSW,202,2.3,2.3,84,0.16,RA,,0.16,WeatherDisplay:10.37,2013-02-10 12:01:00,
2013-02-10 23:06:00,70.7,65.6,30.10,SW,225,2.3,2.3,84,0.18,RA,,0.18,WeatherDisplay:10.37,2013-02-10 12:06:00,
2013-02-10 23:11:00,70.7,65.6,30.09,SW,225,1.1,1.1,84,0.20,RA,,0.22,WeatherDisplay:10.37,2013-02-10 12:11:00,
2013-02-10 23:16:00,70.7,65.6,30.08,SE,135,1.1,1.1,84,0.22,RA,,0.24,WeatherDisplay:10.37,2013-02-10 12:16:00,
2013-02-10 23:21:00,70.7,65.6,30.08,ESE,112,1.1,1.1,84,0.24,RA,,0.26,WeatherDisplay:10.37,2013-02-10 12:21:00,
2013-02-10 23:26:00,70.5,65.4,30.07,NW,315,0.0,0.0,84,0.26,RA,,0.28,WeatherDisplay:10.37,2013-02-10 12:26:00,
2013-02-10 23:31:00,70.5,65.4,30.07,SE,135,0.0,0.0,84,0.26,RA,,0.30,WeatherDisplay:10.37,2013-02-10 12:31:00,
2013-02-10 23:36:00,70.7,65.6,30.06,NNE,22,1.1,1.1,84,0.26,RA,,0.30,WeatherDisplay:10.37,2013-02-10 12:36:00,
2013-02-10 23:41:00,70.5,65.4,30.05,NNW,338,1.1,1.1,84,0.22,CLR,,0.30,WeatherDisplay:10.37,2013-02-10 12:41:00,
2013-02-10 23:46:00,70.5,65.4,30.05,West,270,2.0,2.0,84,0.20,CLR,,0.30,WeatherDisplay:10.37,2013-02-10 12:46:00,
2013-02-10 23:51:00,70.3,65.3,30.03,North,0,5.8,5.8,84,0.18,CLR,,0.30,WeatherDisplay:10.37,2013-02-10 12:51:00,
2013-02-10 23:56:00,70.2,65.1,30.03,SE,135,4.6,4.6,84,0.16,CLR,,0.30,WeatherDisplay:10.37,2013-02-10 12:56:00,